When you browse on this site, cookies collect data to enhance your experience and personalize the content and advertising you see.
Visit our Privacy Policy to learn more. By continuing to use the site, you agree to this use of cookies and data.
  • In Latvia
  • List of Countries
  • For 7 days
  • Water Temperature
  • Satellite Maps
  • Weather Map
  • Weather Widgets
  • user-avatar
    Login

    Hourly Weather Fier

    Today, 23 July, Tuesday

    Time Temperature Precipitation Wind Pressure Humidity
    00:00 +26°C° 0 mm 1 mps 760 mmHg 66%
    01:00 +26°C° 0 mm 1 mps 760 mmHg 66%
    02:00 +26°C° 0 mm 1 mps 760 mmHg 65%
    03:00 +26°C° 0 mm 1 mps 760 mmHg 64%
    04:00 +25°C° 0 mm 1 mps 760 mmHg 63%
    05:00 +27°C° 0 mm 1 mps 760 mmHg 58%
    06:00 +28°C° 0 mm 2 mps 760 mmHg 53%
    07:00 +30°C° 0 mm 2 mps 760 mmHg 48%
    08:00 +31°C° 0 mm 2 mps 760 mmHg 44%
    09:00 +34°C° 0 mm 3 mps 760 mmHg 40%
    10:00 +36°C° 0 mm 3 mps 760 mmHg 37%
    11:00 +36°C° 0 mm 4 mps 759 mmHg 37%
    12:00 +36°C° 0 mm 5 mps 759 mmHg 38%
    13:00 +36°C° 0 mm 6 mps 759 mmHg 39%
    14:00 +35°C° 0 mm 6 mps 759 mmHg 41%
    15:00 +34°C° 0 mm 6 mps 758 mmHg 44%
    16:00 +34°C° 0 mm 6 mps 758 mmHg 47%
    17:00 +32°C° 0 mm 5 mps 758 mmHg 53%
    18:00 +29°C° 0 mm 4 mps 758 mmHg 59%
    19:00 +28°C° 0 mm 3 mps 758 mmHg 65%
    20:00 +27°C° 0 mm 2 mps 758 mmHg 67%
    21:00 +26°C° 0 mm 2 mps 759 mmHg 69%
    22:00 +26°C° 0 mm 1 mps 759 mmHg 72%
    23:00 +26°C° 0 mm 1 mps 759 mmHg 70%

    Tomorrow, 24 July, Wednesday

    Time Temperature Precipitation Wind Pressure Humidity
    00:00 +26°C° 0 mm 1 mps 758 mmHg 67%
    01:00 +26°C° 0 mm 2 mps 758 mmHg 65%
    02:00 +25°C° 0 mm 2 mps 758 mmHg 63%
    03:00 +25°C° 0 mm 2 mps 758 mmHg 61%
    04:00 +25°C° 0 mm 3 mps 758 mmHg 59%
    05:00 +26°C° 0 mm 3 mps 758 mmHg 54%
    06:00 +28°C° 0 mm 3 mps 758 mmHg 50%
    07:00 +29°C° 0 mm 3 mps 758 mmHg 46%
    08:00 +31°C° 0 mm 3 mps 758 mmHg 41%
    09:00 +34°C° 0 mm 3 mps 758 mmHg 37%
    10:00 +35°C° 0 mm 4 mps 758 mmHg 33%
    11:00 +36°C° 0 mm 4 mps 758 mmHg 33%
    12:00 +36°C° 0 mm 5 mps 758 mmHg 33%
    13:00 +36°C° 0 mm 6 mps 758 mmHg 33%
    14:00 +36°C° 0 mm 7 mps 757 mmHg 37%
    15:00 +35°C° 0 mm 7 mps 757 mmHg 40%
    16:00 +34°C° 0 mm 7 mps 757 mmHg 44%
    17:00 +33°C° 0 mm 6 mps 757 mmHg 48%
    18:00 +30°C° 0 mm 6 mps 757 mmHg 52%
    19:00 +29°C° 0 mm 5 mps 758 mmHg 56%
    20:00 +28°C° 0 mm 4 mps 758 mmHg 59%
    21:00 +28°C° 0 mm 3 mps 758 mmHg 62%
    22:00 +27°C° 0 mm 3 mps 759 mmHg 66%
    23:00 +27°C° 0 mm 2 mps 759 mmHg 63%

    Day after tomorrow, 25 July, Thursday

    Time Temperature Precipitation Wind Pressure Humidity
    00:00 +26°C° 0 mm 2 mps 759 mmHg 60%
    01:00 +26°C° 0 mm 2 mps 759 mmHg 57%
    02:00 +26°C° 0 mm 2 mps 759 mmHg 57%
    03:00 +26°C° 0 mm 2 mps 759 mmHg 56%
    04:00 +25°C° 0 mm 3 mps 759 mmHg 56%
    05:00 +27°C° 0 mm 2 mps 759 mmHg 52%
    06:00 +28°C° 0 mm 2 mps 759 mmHg 49%
    07:00 +29°C° 0 mm 2 mps 759 mmHg 46%
    08:00 +31°C° 0 mm 2 mps 760 mmHg 43%
    09:00 +32°C° 0 mm 2 mps 760 mmHg 41%
    10:00 +35°C° 0 mm 2 mps 760 mmHg 39%
    11:00 +35°C° 0 mm 3 mps 760 mmHg 40%
    12:00 +35°C° 0 mm 4 mps 759 mmHg 40%
    13:00 +35°C° 0 mm 5 mps 759 mmHg 41%
    14:00 +35°C° 0 mm 4 mps 759 mmHg 44%
    15:00 +34°C° 0 mm 4 mps 759 mmHg 47%
    16:00 +33°C° 0 mm 3 mps 759 mmHg 50%
    17:00 +31°C° 0 mm 2 mps 759 mmHg 55%
    18:00 +29°C° 0 mm 1 mps 759 mmHg 61%
    19:00 +28°C° 0 mm 1 mps 759 mmHg 66%
    20:00 +27°C° 0 mm 1 mps 759 mmHg 67%
    21:00 +27°C° 0 mm 1 mps 759 mmHg 68%
    22:00 +26°C° 0 mm 1 mps 759 mmHg 68%
    23:00 +26°C° 0 mm 1 mps 759 mmHg 68%

    26 July, Friday

    Time Temperature Precipitation Wind Pressure Humidity
    00:00 +26°C° 0 mm 1 mps 759 mmHg 68%
    01:00 +26°C° 0 mm 1 mps 759 mmHg 68%
    02:00 +25°C° 0 mm 1 mps 759 mmHg 68%
    03:00 +25°C° 0 mm 1 mps 759 mmHg 69%
    04:00 +23°C° 0 mm 0 mps 758 mmHg 69%
    05:00 +24°C° 0 mm 0 mps 758 mmHg 65%
    06:00 +26°C° 0 mm 0 mps 758 mmHg 60%
    07:00 +27°C° 0 mm 0 mps 758 mmHg 56%
    08:00 +30°C° 0 mm 1 mps 758 mmHg 52%
    09:00 +32°C° 0 mm 2 mps 758 mmHg 48%
    10:00 +34°C° 0 mm 2 mps 758 mmHg 44%
    11:00 +34°C° 0 mm 3 mps 758 mmHg 44%
    12:00 +35°C° 0 mm 4 mps 757 mmHg 44%
    13:00 +35°C° 0 mm 5 mps 757 mmHg 44%
    14:00 +34°C° 0 mm 4 mps 757 mmHg 45%
    15:00 +34°C° 0 mm 3 mps 756 mmHg 46%
    16:00 +33°C° 0 mm 3 mps 756 mmHg 47%
    17:00 +31°C° 0 mm 2 mps 756 mmHg 52%
    18:00 +29°C° 0 mm 1 mps 756 mmHg 57%
    19:00 +27°C° 0 mm 1 mps 756 mmHg 62%
    20:00 +27°C° 0 mm 1 mps 756 mmHg 64%
    21:00 +26°C° 0 mm 1 mps 756 mmHg 66%
    22:00 +26°C° 0 mm 1 mps 756 mmHg 68%
    23:00 +25°C° 0 mm 1 mps 756 mmHg 70%

    27 July, Saturday

    Time Temperature Precipitation Wind Pressure Humidity
    00:00 +25°C° 0 mm 1 mps 756 mmHg 71%
    01:00 +25°C° 0 mm 1 mps 756 mmHg 72%
    02:00 +24°C° 0 mm 1 mps 755 mmHg 72%
    03:00 +24°C° 0 mm 1 mps 755 mmHg 72%
    04:00 +24°C° 0 mm 1 mps 755 mmHg 72%
    05:00 +26°C° 0 mm 1 mps 755 mmHg 67%
    06:00 +27°C° 0 mm 1 mps 755 mmHg 61%
    07:00 +29°C° 0 mm 1 mps 755 mmHg 56%
    08:00 +30°C° 0 mm 2 mps 755 mmHg 51%
    09:00 +32°C° 0 mm 2 mps 755 mmHg 47%
    10:00 +34°C° 0 mm 3 mps 755 mmHg 42%
    11:00 +34°C° 0 mm 4 mps 755 mmHg 42%
    12:00 +35°C° 0 mm 4 mps 754 mmHg 42%
    13:00 +35°C° 0 mm 5 mps 754 mmHg 42%
    14:00 +34°C° 0 mm 5 mps 754 mmHg 42%
    15:00 +34°C° 0 mm 4 mps 753 mmHg 42%
    16:00 +34°C° 0 mm 4 mps 753 mmHg 43%
    17:00 +31°C° 0 mm 3 mps 753 mmHg 47%
    18:00 +29°C° 0 mm 3 mps 753 mmHg 51%
    19:00 +28°C° 0 mm 2 mps 753 mmHg 55%
    20:00 +27°C° 0 mm 2 mps 753 mmHg 58%
    21:00 +27°C° 0 mm 2 mps 754 mmHg 60%
    22:00 +26°C° 0 mm 2 mps 754 mmHg 62%
    23:00 +26°C° 0 mm 1 mps 754 mmHg 63%

    28 July, Sunday

    Time Temperature Precipitation Wind Pressure Humidity
    00:00 +25°C° 0 mm 1 mps 754 mmHg 65%
    01:00 +25°C° 0 mm 1 mps 754 mmHg 66%
    02:00 +25°C° 0.2 mm 1 mps 753 mmHg 66%
    03:00 +25°C° 0.2 mm 1 mps 753 mmHg 66%
    04:00 +24°C° 0.2 mm 1 mps 753 mmHg 66%
    05:00 +26°C° 0.2 mm 1 mps 753 mmHg 62%
    06:00 +28°C° 0.2 mm 1 mps 753 mmHg 57%
    07:00 +29°C° 0.2 mm 1 mps 753 mmHg 53%
    08:00 +30°C° 0.3 mm 2 mps 753 mmHg 51%
    09:00 +31°C° 0.3 mm 3 mps 753 mmHg 49%
    10:00 +33°C° 0.3 mm 3 mps 753 mmHg 46%
    11:00 +33°C° 0 mm 4 mps 753 mmHg 45%
    12:00 +33°C° 0 mm 4 mps 753 mmHg 44%
    13:00 +34°C° 0 mm 5 mps 752 mmHg 44%
    14:00 +34°C° 0.2 mm 5 mps 752 mmHg 43%
    15:00 +34°C° 0.2 mm 5 mps 752 mmHg 42%
    16:00 +34°C° 0.2 mm 5 mps 752 mmHg 42%
    17:00 +32°C° 0 mm 4 mps 752 mmHg 46%
    18:00 +30°C° 0 mm 3 mps 752 mmHg 50%
    19:00 +28°C° 0 mm 2 mps 752 mmHg 54%
    20:00 +27°C° 0.3 mm 2 mps 753 mmHg 60%
    21:00 +26°C° 0.3 mm 2 mps 753 mmHg 66%
    22:00 +25°C° 0.3 mm 1 mps 753 mmHg 71%
    23:00 +25°C° 0.3 mm 1 mps 753 mmHg 72%
    Show more